Airfield :
LOGIN :

Register | Disclaimer

   EN    FR    IT 

 










Legend :    VFR   Marginal VFR   IFR   Intensive IFR   Very Intensive IFR
Visi :
Ceiling :
>= 8 km
>= 3000ft
5 to 8 km
1000 to 3000 ft
1500m to 5 km
500 to 1000 ft
800 to 1500m
200 to 500 ft
< 800m
< 200 ft
Symbols :   Thunderstorms  Fog  Heavy snow  Heavy precipitations  Wind > 20 kt
SIGMETs :     Misc.  Thunderstorms  Icing  Turbulence  Mountain Waves  Volcanic Ashes






- Airport Elevation : 106 ft
- IATA code : XDA


LFBY - Dax Seyresse

CURRENT METAR :
  • 220700Z 27015G29KT 230V340 2000 SHRA SCT013 SCT030CB BKN040 10/08 Q0996

EXPIRED METARs :
  • FBY 220600Z 30010G20KT 250V340 9000 SCT016 BKN040 BKN090 12/09 Q0994
  • 220600Z 30010G20KT 250V340 9000 SCT016 BKN040 BKN090 12/09 Q0994
  • 220530Z AUTO 24009KT 210V280 9999 // ////// 12/09 Q0993
  • 220500Z AUTO 22013G27KT 190V260 7000 // ///CB 14/08 Q0993
  • 220430Z AUTO 19004KT 9999 // ///TCU 13/08 Q0993

Expired Forecast.



MET'MAP, your aeronautical weather chart ! - Copyright ORBIFLY December 2007 - Disclaimer

ORBIFLY MET'MAP TEAM :

Programming & Development : Alexandra Zaïnal
Concept & original design : Baudouin d'Aumeries
Assistance for programming : Marc-Olivier Méhu
Technical & hardware support : Manuel Goepfert

Contact : metmap@orbifly.com




SOURCES & CREDITS :

   NOAA